H1 CPF 2 NER 2025 9 28 9 271 01 glonass129 H2 1106402 9129 37868 2025 9 28 0 0 0 2025 10 1 23 45 0 900 1 1 0 0 0 1 H9 10 0 60946 0.00000 0 -9553003.981 5581083.760 23022027.081 10 0 60946 900.00000 0 -10379921.567 2862026.684 23157635.440 10 0 60946 1800.00000 0 -11402631.711 221399.672 22845129.378 10 0 60946 2700.00000 0 -12591106.812 -2277232.795 22090307.489 10 0 60946 3600.00000 0 -13904863.383 -4577023.311 20907513.423 10 0 60946 4500.00000 0 -15294588.715 -6629964.030 19319382.526 10 0 60946 5400.00000 0 -16704159.034 -8398642.851 17356429.475 10 0 60946 6300.00000 0 -18072967.081 -9857560.184 15056482.564 10 0 60946 7200.00000 0 -19338463.452 -10993950.841 12463973.338 10 0 60946 8100.00000 0 -20438806.203 -11808075.666 9629093.212 10 0 60946 9000.00000 0 -21315507.653 -12312969.507 6606831.726 10 0 60946 9900.00000 0 -21915966.340 -12533654.857 3455913.985 10 0 60946 10800.00000 0 -22195775.955 -12505853.342 237657.467 10 0 60946 11700.00000 0 -22120711.680 -12274248.888 -2985229.332 10 0 60946 12600.00000 0 -21668307.453 -11890376.055 -6149882.060 10 0 60946 13500.00000 0 -20828954.768 -11410223.663 -9194523.915 10 0 60946 14400.00000 0 -19606473.951 -10891656.581 -12059691.164 10 0 60946 15300.00000 0 -18018131.556 -10391766.864 -14689414.670 10 0 60946 16200.00000 0 -16094101.480 -9964268.758 -17032332.294 10 0 60946 17100.00000 0 -13876391.540 -9657050.262 -19042708.501 10 0 60946 18000.00000 0 -11417280.488 -9509987.184 -20681339.709 10 0 60946 18900.00000 0 -8777331.492 -9553114.012 -21916326.618 10 0 60946 19800.00000 0 -6023066.297 -9805230.231 -22723697.935 10 0 60946 20700.00000 0 -3224398.613 -10273001.630 -23087873.320 10 0 60946 21600.00000 0 -451935.166 -10950594.497 -23001957.020 10 0 60946 22500.00000 0 2225741.982 -11819857.513 -22467857.424 10 0 60946 23400.00000 0 4744697.993 -12851042.546 -21496231.407 10 0 60946 24300.00000 0 7048063.520 -14004032.544 -20106256.004 10 0 60946 25200.00000 0 9088148.758 -15230023.236 -18325233.382 10 0 60946 26100.00000 0 10828166.736 -16473586.302 -16188038.340 10 0 60946 27000.00000 0 12243496.209 -17675025.892 -13736420.512 10 0 60946 27900.00000 0 13322434.288 -18772928.357 -11018176.166 10 0 60946 28800.00000 0 14066410.471 -19706797.436 -8086206.793 10 0 60946 29700.00000 0 14489656.425 -20419664.010 -4997483.628 10 0 60946 30600.00000 0 14618348.556 -20860561.173 -1811938.773 10 0 60946 31500.00000 0 14489262.111 -20986761.409 1408695.290 10 0 60946 32400.00000 0 14147995.660 -20765683.083 4602075.378 10 0 60946 33300.00000 0 13646842.113 -20176387.490 7706443.911 10 0 60946 34200.00000 0 13042396.631 -19210604.971 10661809.412 10 0 60946 35100.00000 0 12393002.067 -17873248.131 13411089.546 10 0 60946 36000.00000 0 11756138.756 -16182391.380 15901196.024 10 0 60946 36900.00000 0 11185867.224 -14168717.721 18084041.968 10 0 60946 37800.00000 0 10730429.852 -11874455.418 19917454.058 10 0 60946 38700.00000 0 10430110.656 -9351847.575 21365973.477 10 0 60946 39600.00000 0 10315441.724 -6661216.567 22401531.689 10 0 60946 40500.00000 0 10405830.611 -3868701.391 23003989.144 10 0 60946 41400.00000 0 10708665.952 -1043759.194 23161527.196 10 0 60946 42300.00000 0 11218939.213 1743468.125 22870885.781 10 0 60946 43200.00000 0 11919399.570 4424815.682 22137441.787 10 0 60946 44100.00000 0 12781237.265 6936677.698 20975125.492 10 0 60946 45000.00000 0 13765269.080 9222404.442 19406175.068 10 0 60946 45900.00000 0 14823578.761 11234415.600 17460731.862 10 0 60946 46800.00000 0 15901546.038 12935942.501 15176281.997 10 0 60946 47700.00000 0 16940181.141 14302326.283 12596952.810 10 0 60946 48600.00000 0 17878668.181 15321816.907 9772675.661 10 0 60946 49500.00000 0 18657011.049 15995838.386 6758229.572 10 0 60946 50400.00000 0 19218670.119 16338707.690 3612183.162 10 0 60946 51300.00000 0 19513077.425 16376817.960 395754.905 10 0 60946 52200.00000 0 19497922.216 16147319.538 -2828385.926 10 0 60946 53100.00000 0 19141107.813 15696354.165 -5997353.324 10 0 60946 54000.00000 0 18422294.233 15076917.259 -9049288.148 10 0 60946 54900.00000 0 17333958.531 14346439.719 -11924585.118 10 0 60946 55800.00000 0 15881925.397 13564193.154 -14567077.109 10 0 60946 56700.00000 0 14085343.487 12788630.417 -16925151.522 10 0 60946 57600.00000 0 11976106.928 12074776.208 -18952774.995 10 0 60946 58500.00000 0 9597745.580 11471780.365 -20610404.844 10 0 60946 59400.00000 0 7003830.564 11020739.193 -21865768.340 10 0 60946 60300.00000 0 4255962.422 10752878.270 -22694494.041 10 0 60946 61200.00000 0 1421427.087 10688174.264 -23080582.831 10 0 60946 62100.00000 0 -1429381.290 10834473.959 -23016709.976 10 0 60946 63000.00000 0 -4225662.023 11187147.008 -22504353.207 10 0 60946 63900.00000 0 -6898920.664 11729285.853 -21553745.567 10 0 60946 64800.00000 0 -9385579.585 12432442.740 -20183655.392 10 0 60946 65700.00000 0 -11629377.995 13257870.890 -18420999.219 10 0 60946 66600.00000 0 -13583462.454 14158215.617 -16300296.729 10 0 60946 67500.00000 0 -15212082.511 15079582.390 -13862979.742 10 0 60946 68400.00000 0 -16491823.134 15963893.277 -11156570.043 10 0 60946 69300.00000 0 -17412325.250 16751431.477 -8233743.085 10 0 60946 70200.00000 0 -17976467.399 17383466.277 -5151296.679 10 0 60946 71100.00000 0 -18200004.009 17804847.875 -1969045.195 10 0 60946 72000.00000 0 -18110678.385 17966463.344 1251338.918 10 0 60946 72900.00000 0 -17746850.097 17827451.245 4447513.938 10 0 60946 73800.00000 0 -17155696.328 17357082.874 7557665.410 10 0 60946 74700.00000 0 -16391063.880 16536232.325 10521687.963 10 0 60946 75600.00000 0 -15511062.497 15358374.703 13282330.721 10 0 60946 76500.00000 0 -14575500.289 13830071.420 15786285.531 10 0 60946 77400.00000 0 -13643267.991 11970922.514 17985198.579 10 0 60946 78300.00000 0 -12769780.451 9812987.651 19836587.583 10 0 60946 79200.00000 0 -12004581.011 7399698.904 21304648.536 10 0 60946 80100.00000 0 -11389207.608 4784308.922 22360937.876 10 0 60946 81000.00000 0 -10955408.612 2027936.768 22984918.141 10 0 60946 81900.00000 0 -10723782.234 -802710.148 23164357.228 10 0 60946 82800.00000 0 -10702896.197 -3637846.349 22895573.734 10 0 60946 83700.00000 0 -10888924.974 -6407249.562 22183523.160 10 0 60946 84600.00000 0 -11265820.907 -9042926.058 21041722.259 10 0 60946 85500.00000 0 -11806013.747 -11481691.528 19492011.386 10 0 60947 0.00000 0 -12471611.330 -13667561.644 17564157.620 10 0 60947 900.00000 0 -13216053.610 -15553854.698 15295302.962 10 0 60947 1800.00000 0 -13986151.723 -17104915.865 12729268.662 10 0 60947 2700.00000 0 -14724429.157 -18297394.303 9915723.597 10 0 60947 3600.00000 0 -15371666.560 -19121015.512 6909233.522 10 0 60947 4500.00000 0 -15869543.355 -19578816.298 3768207.559 10 0 60947 5400.00000 0 -16163263.875 -19686830.791 553761.956 10 0 60947 6300.00000 0 -16204055.493 -19473239.444 -2671476.592 10 0 60947 7200.00000 0 -15951430.814 -18977016.122 -5844603.883 10 0 60947 8100.00000 0 -15375115.528 -18246130.170 -8903681.940 10 0 60947 9000.00000 0 -14456557.416 -17335379.955 -11788967.420 10 0 60947 9900.00000 0 -13189949.811 -16303950.626 -14444098.592 10 0 60947 10800.00000 0 -11582723.780 -15212801.043 -16817215.580 10 0 60947 11700.00000 0 -9655486.214 -14121992.392 -18861990.068 10 0 60947 12600.00000 0 -7441405.144 -13088073.486 -20538542.717 10 0 60947 13500.00000 0 -4985067.497 -12161635.138 -21814229.279 10 0 60947 14400.00000 0 -2340857.280 -11385138.341 -22664279.464 10 0 60947 15300.00000 0 429077.277 -10791108.795 -23072276.050 10 0 60947 16200.00000 0 3257181.681 -10400774.083 -23030465.346 10 0 60947 17100.00000 0 6073078.762 -10223200.375 -22539893.861 10 0 60947 18000.00000 0 8806269.172 -10254963.820 -21610369.726 10 0 60947 18900.00000 0 11388835.697 -10480368.660 -20260251.028 10 0 60947 19800.00000 0 13758038.653 -10872200.771 -18516066.730 10 0 60947 20700.00000 0 15858694.773 -11392982.586 -16411979.080 10 0 60947 21600.00000 0 17645241.674 -11996674.288 -13989099.445 10 0 60947 22500.00000 0 19083403.678 -12630747.622 -11294672.153 10 0 60947 23400.00000 0 20151391.826 -13238543.335 -8381143.387 10 0 60947 24300.00000 0 20840590.716 -13761811.810 -5305134.059 10 0 60947 25200.00000 0 21155706.392 -14143329.322 -2126337.204 10 0 60947 26100.00000 0 21114371.932 -14329479.678 1093638.409 10 0 60947 27000.00000 0 20746229.904 -14272693.032 4292456.079 10 0 60947 27900.00000 0 20091532.254 -13933640.072 7408247.816 10 0 60947 28800.00000 0 19199317.845 -13283090.313 10380797.390 10 0 60947 29700.00000 0 18125244.857 -12303357.505 13152687.996 10 0 60947 30600.00000 0 16929168.976 -10989272.287 15670393.777 10 0 60947 31500.00000 0 15672568.209 -9348641.798 17885295.654 10 0 60947 32400.00000 0 14415921.023 -7402176.864 19754603.578 10 0 60947 33300.00000 0 13216145.943 -5182889.008 21242169.070 10 0 60947 34200.00000 0 12124208.017 -2734980.964 22319173.844 10 0 60947 35100.00000 0 11182990.572 -112274.759 22964682.415 10 0 60947 36000.00000 0 10425519.860 2623759.946 23166048.757 10 0 60947 36900.00000 0 9873615.970 5406298.246 22919169.324 10 0 60947 37800.00000 0 9537026.166 8165681.055 22228577.135 10 0 60947 38700.00000 0 9413077.345 10832063.070 21107374.068 10 0 60947 39600.00000 0 9486863.251 13338080.160 19577001.089 10 0 60947 40500.00000 0 9731960.171 15621427.213 17666848.871 10 0 60947 41400.00000 0 10111642.969 17627240.351 15413714.066 10 0 60947 42300.00000 0 10580552.306 19310184.526 12861109.454 10 0 60947 43200.00000 0 11086744.567 20636158.944 10058439.217 10 0 60947 44100.00000 0 11574039.329 21583547.879 7060053.506 10 0 60947 45000.00000 0 11984565.825 22143962.933 3924199.482 10 0 60947 45900.00000 0 12261400.495 22322443.881 711888.628 10 0 60947 46800.00000 0 12351182.926 22137108.001 -2514297.519 10 0 60947 47700.00000 0 12206597.536 21618261.428 -5691439.114 10 0 60947 48600.00000 0 11788613.430 20807009.272 -8757521.789 10 0 60947 49500.00000 0 11068384.700 19753423.131 -11652666.426 10 0 60947 50400.00000 0 10028727.787 18514344.028 -14320318.761 10 0 60947 51300.00000 0 8665110.651 17150914.879 -16708373.481 10 0 60947 52200.00000 0 6986109.577 15725948.380 -18770208.920 10 0 60947 53100.00000 0 5013312.608 14301243.435 -20465610.461 10 0 60947 54000.00000 0 2780672.555 12934965.208 -21761563.513 10 0 60947 54900.00000 0 333336.358 11679200.897 -22632899.914 10 0 60947 55800.00000 0 -2273999.855 10577795.271 -23062785.086 10 0 60947 56700.00000 0 -4979140.490 9664557.521 -23043036.887 10 0 60947 57600.00000 0 -7714758.383 8961914.474 -22574270.805 10 0 60947 58500.00000 0 -10410980.995 8480065.742 -21665869.882 10 0 60947 59400.00000 0 -12998086.263 8216674.546 -20335781.390 10 0 60947 60300.00000 0 -15409195.294 8157104.903 -18610145.732 10 0 60947 61200.00000 0 -17582849.760 8275192.670 -16522766.357 10 0 60947 62100.00000 0 -19465367.241 8534515.289 -14114432.463 10 0 60947 63000.00000 0 -21012877.606 8890104.286 -11432108.963 10 0 60947 63900.00000 0 -22192957.315 9290526.226 -8528010.606 10 0 60947 64800.00000 0 -22985795.688 9680242.732 -5458579.125 10 0 60947 65700.00000 0 -23384847.029 10002149.011 -2283383.840 10 0 60947 66600.00000 0 -23396943.956 10200183.382 936032.595 10 0 60947 67500.00000 0 -23041869.784 10221897.900 4137340.994 10 0 60947 68400.00000 0 -22351410.045 10020882.322 7258622.393 10 0 60947 69300.00000 0 -21367924.583 9558940.240 10239552.292 10 0 60947 70200.00000 0 -20142501.068 8807926.845 13022550.571 10 0 60947 71100.00000 0 -18732767.556 7751172.028 15553876.247 10 0 60947 72000.00000 0 -17200455.285 6384429.743 17784647.462 10 0 60947 72900.00000 0 -15608812.609 4716314.002 19671768.718 10 0 60947 73800.00000 0 -14019976.649 2768202.777 21178749.144 10 0 60947 74700.00000 0 -12492410.656 573612.681 22276397.508 10 0 60947 75600.00000 0 -11078512.166 -1822931.413 22943381.733 10 0 60947 76500.00000 0 -9822490.044 -4367487.185 23166642.918 10 0 60947 77400.00000 0 -8758597.676 -6998682.863 22941656.030 10 0 60947 78300.00000 0 -7909795.210 -9650022.881 22272531.861 10 0 60947 79200.00000 0 -7286896.526 -12252418.520 21171957.261 10 0 60947 80100.00000 0 -6888237.075 -14736841.072 19660973.255 10 0 60947 81000.00000 0 -6699877.487 -17036989.469 17768593.353 10 0 60947 81900.00000 0 -6696335.883 -19091862.861 15531267.174 10 0 60947 82800.00000 0 -6841819.802 -20848131.542 12992197.496 10 0 60947 83700.00000 0 -7091907.538 -22262207.108 10200521.789 10 0 60947 84600.00000 0 -7395609.343 -23301924.336 7210372.299 10 0 60947 85500.00000 0 -7697722.276 -23947762.778 4079831.698 10 0 60948 0.00000 0 -7941379.211 -24193554.945 869804.263 10 0 60948 900.00000 0 -8070683.494 -24046649.423 -2357177.109 10 0 60948 1800.00000 0 -8033315.839 -23527520.104 -5538179.672 10 0 60948 2700.00000 0 -7783001.242 -22668837.175 -8611115.818 10 0 60948 3600.00000 0 -7281728.337 -21514037.985 -11515973.864 10 0 60948 4500.00000 0 -6501624.414 -20115458.421 -14196010.228 10 0 60948 5400.00000 0 -5426403.818 -18532104.345 -16598877.290 10 0 60948 6300.00000 0 -4052325.888 -16827158.476 -18677662.960 10 0 60948 7200.00000 0 -2388619.874 -15065329.551 -20391819.980 10 0 60948 8100.00000 0 -457357.460 -13310157.285 -21707965.628 10 0 60948 9000.00000 0 1707222.571 -11621388.260 -22600535.596 10 0 60948 9900.00000 0 4059909.278 -10052534.395 -23052279.144 10 0 60948 10800.00000 0 6546183.622 -8648717.268 -23054586.321 10 0 60948 11700.00000 0 9104281.197 -7444888.736 -22607641.713 10 0 60948 12600.00000 0 11667566.420 -6464501.683 -21720402.912 10 0 60948 13500.00000 0 14167118.074 -5718685.082 -20410405.560 10 0 60948 14400.00000 0 16534417.609 -5205955.706 -18703400.267 10 0 60948 15300.00000 0 18704027.684 -4912475.910 -16632830.032 10 0 60948 16200.00000 0 20616149.426 -4812843.696 -14239159.827 10 0 60948 17100.00000 0 22218952.454 -4871378.913 -11569072.662 10 0 60948 18000.00000 0 23470581.726 -5043848.768 -8674548.968 10 0 60948 18900.00000 0 24340759.193 -5279557.731 -5611848.051 10 0 60948 19800.00000 0 24811915.549 -5523712.067 -2440411.999 10 0 60948 20700.00000 0 24879807.090 -5719958.307 778286.342 10 0 60948 21600.00000 0 24553594.280 -5812988.208 3981929.024 10 0 60948 22500.00000 0 23855380.892 -5751100.633 7108549.725 10 0 60948 23400.00000 0 22819234.781 -5488613.015 10097719.056 10 0 60948 24300.00000 0 21489732.449 -4988021.841 12891696.634 10 0 60948 25200.00000 0 19920088.833 -4221822.239 15436529.000 10 0 60948 26100.00000 0 18169950.312 -3173911.083 17683073.715 10 0 60948 27000.00000 0 16302942.292 -1840515.206 19587931.578 10 0 60948 27900.00000 0 14384072.320 -230605.711 21114270.637 10 0 60948 28800.00000 0 12477095.231 1634219.672 22232527.579 10 0 60948 29700.00000 0 10641948.142 3720382.805 22920974.191 10 0 60948 30600.00000 0 8932360.150 5983475.134 23166138.751 10 0 60948 31500.00000 0 7393734.591 8369866.250 22963074.393 10 0 60948 32400.00000 0 6061390.778 10818707.137 22315468.951 10 0 60948 33300.00000 0 4959237.746 13264247.919 21235593.151 10 0 60948 34200.00000 0 4098935.287 15638376.630 19744086.637 10 0 60948 35100.00000 0 3479577.778 17873275.876 17869584.009 10 0 60948 36000.00000 0 3087915.067 19904088.604 15648185.847 10 0 60948 36900.00000 0 2899102.483 21671482.805 13122782.685 10 0 60948 37800.00000 0 2877949.902 23124008.205 10342242.849 10 0 60948 38700.00000 0 2980618.602 24220145.673 7360478.078 10 0 60948 39600.00000 0 3156695.244 24929961.994 4235403.821 10 0 60948 40500.00000 0 3351555.699 25236298.691 1027813.745 10 0 60948 41400.00000 0 3508918.309 25135442.699 -2199809.590 10 0 60948 42300.00000 0 3573477.303 24637248.599 -5384523.937 10 0 60948 43200.00000 0 3493502.898 23764705.492 -8464171.153 10 0 60948 44100.00000 0 3223295.444 22552965.520 -11378609.520 10 0 60948 45000.00000 0 2725386.813 21047874.502 -14070908.419 10 0 60948 45900.00000 0 1972392.917 19304066.843 -16488479.940 10 0 60948 46800.00000 0 948436.243 17382705.837 -18584123.320 10 0 60948 47700.00000 0 -349924.071 15348965.965 -20316960.126 10 0 60948 48600.00000 0 -1913295.606 13269364.764 -21653240.731 10 0 60948 49500.00000 0 -3719607.351 11209058.104 -22567005.659 10 0 60948 50400.00000 0 -5734809.609 9229213.901 -23040588.728 10 0 60948 51300.00000 0 -7914089.582 7384575.379 -23064952.612 10 0 60948 52200.00000 0 -10203551.026 5721316.265 -22639851.104 10 0 60948 53100.00000 0 -12542286.688 4275277.277 -21773816.077 10 0 60948 54000.00000 0 -14864755.796 3070656.450 -20483970.877 10 0 60948 54900.00000 0 -17103366.289 2119206.044 -18795675.241 10 0 60948 55800.00000 0 -19191153.235 1419967.097 -16742010.269 10 0 60948 56700.00000 0 -21064441.315 959549.667 -14363114.917 10 0 60948 57600.00000 0 -22665380.440 712943.806 -11705388.261 10 0 60948 58500.00000 0 -23944249.328 644824.099 -8820574.189 10 0 60948 59400.00000 0 -24861432.096 711290.136 -5764747.228 10 0 60948 60300.00000 0 -25388986.950 861967.384 -2597219.787 10 0 60948 61200.00000 0 -25511743.349 1042378.336 620607.615 10 0 60948 62100.00000 0 -25227883.878 1196483.100 3826430.855 10 0 60948 63000.00000 0 -24548988.486 1269282.071 6958238.890 10 0 60948 63900.00000 0 -23499540.992 1209371.357 9955500.134 10 0 60948 64800.00000 0 -22115919.754 971344.079 12760316.622 10 0 60948 65700.00000 0 -20444915.381 517937.464 15318525.044 10 0 60948 66600.00000 0 -18541837.388 -178163.528 17580724.881 10 0 60948 67500.00000 0 -16468288.174 -1132941.043 19503215.518 10 0 60948 68400.00000 0 -14289695.760 -2350135.398 21048825.911 10 0 60948 69300.00000 0 -12072706.372 -3820850.745 22187622.310 10 0 60948 70200.00000 0 -9882543.244 -5523692.807 22897481.623 10 0 60948 71100.00000 0 -7780439.349 -7425434.686 23164520.141 10 0 60948 72000.00000 0 -5821248.799 -9482185.312 22983369.602 10 0 60948 72900.00000 0 -4051334.526 -11641014.655 22357294.928 10 0 60948 73800.00000 0 -2506818.940 -13841971.108 21298150.403 10 0 60948 74700.00000 0 -1212269.835 -16020410.002 19826173.625 10 0 60948 75600.00000 0 -179876.355 -18109538.982 17969619.284 10 0 60948 76500.00000 0 590849.968 -20043076.292 15764237.604 10 0 60948 77400.00000 0 1112835.565 -21757912.366 13252605.242 10 0 60948 78300.00000 0 1410675.369 -23196664.016 10483319.462 10 0 60948 79200.00000 0 1519364.642 -24310013.906 7510069.325 10 0 60948 80100.00000 0 1482584.481 -25058736.013 4390600.663 10 0 60948 81000.00000 0 1350612.819 -25415320.127 1185594.253 10 0 60948 81900.00000 0 1177949.312 -25365124.848 -2042520.970 10 0 60948 82800.00000 0 1020755.444 -24907008.102 -5230795.789 10 0 60948 83700.00000 0 934219.806 -24053406.424 -8317004.430 10 0 60948 84600.00000 0 969962.361 -22829857.852 -11240878.082 10 0 60948 85500.00000 0 1173590.298 -21273987.409 -13945302.046 10 0 60949 0.00000 0 1582511.762 -19433997.701 -16377450.792 10 0 60949 900.00000 0 2224103.020 -17366727.439 -18489838.040 10 0 60949 1800.00000 0 3114308.466 -15135363.087 -20241256.425 10 0 60949 2700.00000 0 4256735.254 -12806897.928 -21597591.543 10 0 60949 3600.00000 0 5642281.649 -10449449.171 -22532490.459 10 0 60949 4500.00000 0 7249315.560 -8129546.206 -23027872.811 10 0 60949 5400.00000 0 9044395.790 -5909504.895 -23074274.691 10 0 60949 6300.00000 0 10983505.170 -3844998.351 -22671019.431 10 0 60949 7200.00000 0 13013742.951 -1982925.714 -21826213.111 10 0 60949 8100.00000 0 15075404.400 -359667.063 -20556566.296 10 0 60949 9000.00000 0 17104359.402 1000204.295 -18887047.001 10 0 60949 9900.00000 0 19034629.526 2084700.696 -16850373.192 10 0 60949 10800.00000 0 20801055.112 2894660.534 -14486356.194 10 0 60949 11700.00000 0 22341940.608 3443443.402 -11841109.123 10 0 60949 12600.00000 0 23601567.779 3756096.067 -8966136.905 10 0 60949 13500.00000 0 24532472.447 3868027.482 -5917326.492 10 0 60949 14400.00000 0 25097390.768 3823251.249 -2753857.502 10 0 60949 15300.00000 0 25270795.179 3672271.674 462945.203 10 0 60949 16200.00000 0 25039957.534 3469703.868 3670794.766 10 0 60949 17100.00000 0 24405496.772 3271728.899 6807638.864 10 0 60949 18000.00000 0 23381389.819 3133491.258 9812847.021 10 0 60949 18900.00000 0 21994446.538 3106547.738 12628366.789 10 0 60949 19800.00000 0 20283271.429 3236474.181 15199827.823 10 0 60949 20700.00000 0 18296755.537 3560729.706 17477574.014 10 0 60949 21600.00000 0 16092160.931 4106867.119 19417605.470 10 0 60949 22500.00000 0 13732876.352 4891163.890 20982413.839 10 0 60949 23400.00000 0 11285935.732 5917730.890 22141696.352 10 0 60949 24300.00000 0 8819400.619 7178136.624 22872936.065 10 0 60949 25200.00000 0 6399712.945 8651563.849 23161837.922 10 0 60949 26100.00000 0 4089125.830 10305493.895 23002612.478 10 0 60949 27000.00000 0 1943317.049 12096892.569 22398101.520 10 0 60949 27900.00000 0 9282.729 13973851.019 21359742.211 10 0 60949 28800.00000 0 -1676402.188 15877616.094 19907368.985 10 0 60949 29700.00000 0 -3088884.693 17744928.283 18068855.091 10 0 60949 30600.00000 0 -4215841.241 19510572.079 15879598.490 10 0 60949 31500.00000 0 -5057757.580 21110033.872 13381859.760 10 0 60949 32400.00000 0 -5627668.092 22482157.086 10623962.645 10 0 60949 33300.00000 0 -5950364.397 23571683.285 7659370.875 10 0 60949 34200.00000 0 -6061105.378 24331571.676 4545657.869 10 0 60949 35100.00000 0 -6003882.257 24724997.859 1343388.620 10 0 60949 36000.00000 0 -5829311.768 24726945.458 -1885064.506 10 0 60949 36900.00000 0 -5592246.929 24325321.024 -5076748.256 10 0 60949 37800.00000 0 -5349207.747 23521542.683 -8169372.076 10 0 60949 38700.00000 0 -5155742.462 22330575.425 -11102542.772 10 0 60949 39600.00000 0 -5063833.492 20780409.810 -13818964.055 10 0 60949 40500.00000 0 -5119460.566 18911005.005 -16265575.428 10 0 60949 41400.00000 0 -5360426.943 16772740.340 -18394606.176 10 0 60949 42300.00000 0 -5814543.166 14424440.921 -20164522.145 10 0 60949 43200.00000 0 -6498247.224 11931061.218 -21540845.557 10 0 60949 44100.00000 0 -7415720.860 9361125.144 -22496831.154 10 0 60949 45000.00000 0 -8558540.150 6784031.321 -23013985.239 10 0 60949 45900.00000 0 -9905875.238 4267337.599 -23082417.879 10 0 60949 46800.00000 0 -11425230.385 1874139.164 -22701022.169 10 0 60949 47700.00000 0 -13073692.322 -339349.976 -21877478.248 10 0 60949 48600.00000 0 -14799633.303 -2325911.641 -20628083.371 10 0 60949 49500.00000 0 -16544796.068 -4049047.324 -18977412.900 10 0 60949 50400.00000 0 -18246672.055 -5484241.245 -16957820.360 10 0 60949 51300.00000 0 -19841072.173 -6619712.562 -14608787.806 10 0 60949 52200.00000 0 -21264781.789 -7456628.404 -11976140.476 10 0 60949 53100.00000 0 -22458188.503 -8008772.191 -9111142.195 10 0 60949 54000.00000 0 -23367772.939 -8301684.484 -6069490.030 10 0 60949 54900.00000 0 -23948359.013 -8371315.513 -2910228.364 10 0 60949 55800.00000 0 -24165030.557 -8262248.618 305396.160 10 0 60949 56700.00000 0 -23994635.510 -8025571.259 3515116.622 10 0 60949 57600.00000 0 -23426816.237 -7716484.441 6656842.180 10 0 60949 58500.00000 0 -22464524.340 -7391751.686 9669846.296 10 0 60949 59400.00000 0 -21123999.666 -7107094.728 12495924.893 10 0 60949 60300.00000 0 -19434215.149 -6914644.807 15080503.392 10 0 60949 61200.00000 0 -17435810.904 -6860555.665 17373672.759 10 0 60949 62100.00000 0 -15179561.583 -6982877.370 19331136.281 10 0 60949 63000.00000 0 -12724439.725 -7309779.126 20915050.437 10 0 60949 63900.00000 0 -10135354.003 -7858194.929 22094745.208 10 0 60949 64800.00000 0 -7480654.213 -8632948.643 22847311.155 10 0 60949 65700.00000 0 -4829504.139 -9626395.631 23158042.797 10 0 60949 66600.00000 0 -2249228.866 -10818597.213 23020730.007 10 0 60949 67500.00000 0 197255.770 -12178022.538 22437791.533 10 0 60949 68400.00000 0 2453826.883 -13662751.051 21420247.145 10 0 60949 69300.00000 0 4473253.794 -15222128.023 19987527.491 10 0 60949 70200.00000 0 6218926.406 -16798806.787 18167123.428 10 0 60949 71100.00000 0 7666140.856 -18331094.832 15994079.379 10 0 60949 72000.00000 0 8802888.345 -19755507.548 13510338.226 10 0 60949 72900.00000 0 9630113.264 -21009423.923 10763948.260 10 0 60949 73800.00000 0 10161428.661 -22033733.151 7808145.631 10 0 60949 74700.00000 0 10422299.760 -22775360.413 4700328.818 10 0 60949 75600.00000 0 10448728.979 -23189564.203 1500944.285 10 0 60949 76500.00000 0 10285497.323 -23241906.321 -1727695.078 10 0 60949 77400.00000 0 9984036.537 -22909808.915 -4922634.974 10 0 60949 78300.00000 0 9600022.723 -22183630.160 -8021523.096 10 0 60949 79200.00000 0 9190794.737 -21067210.521 -10963844.861 10 0 60949 80100.00000 0 8812708.652 -19577864.322 -13692125.309 10 0 60949 81000.00000 0 8518542.768 -17745815.296 -16153071.551 10 0 60949 81900.00000 0 8355065.528 -15613098.956 -18298631.458 10 0 60949 82800.00000 0 8360871.783 -13231977.758 -20086946.154 10 0 60949 83700.00000 0 8564580.964 -10662936.120 -21483176.449 10 0 60949 84600.00000 0 8983474.925 -7972340.339 -22460186.319 10 0 60949 85500.00000 0 9622633.875 -5229862.710 -22999069.862 99